Flag for Norway Weather past 2 weeks in Stavern, Norway

Now
54 °F

Rain. Scattered clouds.


Feels Like: 50 °F
Forecast: 51 / 61 °F
Wind: 10 mph from South

Location: Torp

Current Time: Aug 22, 2014 at 4:33:55 PM

Latest Report: Aug 22, 2014 at 3:50 PM


Visibility: 6 mi

Pressure: 29.65 "Hg

Humidity: 94%

Dew point: 52 °F

Location of StavernLocation

Historic Weather in Stavern — Graph

°F

Stavern temperature yesterday

Maximum temperature yesterday: 66 °F (at 5:20 PM)
Minimum temperature yesterday: 50 °F (at 4:50 AM)
Average temperature yesterday: 57 °F

Past Weeks' High & Low Weather Summary

 TemperatureHumidityPressure
High73 °F (Aug 7, 3:20 PM)100% (Aug 8, 7:50 AM)29.92 "Hg (Aug 8, 7:50 AM)
Low45 °F (Aug 18, 6:50 AM)49% (Aug 21, 5:20 PM)29.18 "Hg (Aug 18, 8:50 AM)
Average59 °F81%29.57 "Hg
* Reported Aug 7 3:20 PM — Aug 22 3:20 PM, Stavern, Weather by CustomWeather, © 2014

Note: Actual official high and low records may vary slightly from our data, if they occured in-between our weather recording intervals... More about our weather records

Advertising

Stavern weather history for previous 24 hours

 ConditionsComfort  
Time TempWeatherWind HumidityBarometerVisibility
3:20 PM
Aug 22
57 °FScattered showers. Partly sunny.9 mph82%29.65 "HgN/A
2:50 PM57 °FScattered clouds.9 mph82%29.65 "HgN/A
2:20 PM57 °FScattered showers. Scattered clouds.10 mph82%29.65 "HgN/A
1:50 PM57 °FScattered clouds.7 mph82%29.65 "HgN/A
1:20 PM55 °FLight rain. Broken clouds.7 mph88%29.65 "HgN/A
12:50 PM54 °FLight rain. Broken clouds.7 mph94%29.65 "HgN/A
12:20 PM55 °FLight rain. Broken clouds.7 mph88%29.68 "HgN/A
11:50 AM54 °FRain showers. Broken clouds.13 mph88%29.68 "Hg6 mi
11:20 AM55 °FScattered showers. Broken clouds.8 mph82%29.65 "HgN/A
10:50 AM59 °FMixture of precip. Broken clouds.12 mph68%29.65 "HgN/A
10:20 AM59 °FScattered showers. Scattered clouds.8 mph63%29.65 "HgN/A
9:50 AM57 °FScattered showers. Scattered clouds.9 mph72%29.65 "HgN/A
9:20 AM59 °FPassing clouds.8 mph68%29.65 "HgN/A
8:50 AM57 °FPassing clouds.8 mph72%29.65 "HgN/A
8:20 AM55 °FPassing clouds.3 mph72%29.65 "HgN/A
7:50 AM54 °FPassing clouds.3 mph77%29.65 "HgN/A
7:20 AM52 °FPassing clouds.6 mph82%29.65 "HgN/A
6:50 AM52 °FPassing clouds.6 mph82%29.65 "HgN/A
6:20 AM52 °FPassing clouds.7 mph82%29.65 "HgN/A
5:20 AM52 °FCool.7 mph82%29.65 "HgN/A
4:50 AM52 °FCool.8 mph82%29.65 "HgN/A
4:20 AM52 °FCool.7 mph82%29.65 "HgN/A
3:50 AM52 °FCool.7 mph82%29.65 "HgN/A
3:20 AM52 °FCool.7 mph82%29.65 "HgN/A
2:50 AM54 °FCool.9 mph77%29.65 "HgN/A
2:20 AM54 °FCool.9 mph77%29.65 "HgN/A
1:50 AM54 °FCool.7 mph77%29.65 "HgN/A
1:20 AM54 °FCool.10 mph77%29.65 "HgN/A
12:50 AM55 °FCool.7 mph72%29.65 "HgN/A
12:20 AM55 °FCool.9 mph67%29.65 "HgN/A
11:50 PM
Aug 21
55 °FCool.9 mph67%29.65 "HgN/A
11:20 PM55 °FClear.8 mph67%29.65 "Hg10 mi
10:50 PM55 °FClear.8 mph67%29.65 "Hg10 mi
10:20 PM57 °FClear.8 mph63%29.65 "Hg10 mi
9:50 PM57 °FSunny.8 mph67%29.65 "Hg10 mi
9:20 PM59 °FPassing clouds.8 mph63%29.62 "HgN/A
8:50 PM61 °FPassing clouds.9 mph55%29.62 "HgN/A
8:20 PM61 °FPassing clouds.7 mph52%29.62 "HgN/A
7:50 PM61 °FPassing clouds.3 mph63%29.62 "HgN/A
7:20 PM63 °FScattered clouds.5 mph56%29.62 "HgN/A
6:50 PM63 °FScattered clouds.5 mph59%29.62 "HgN/A
6:20 PM61 °FScattered clouds.6 mph63%29.62 "HgN/A
5:50 PM63 °FScattered showers. Scattered clouds.5 mph56%29.62 "HgN/A
5:20 PM66 °FScattered showers. Scattered clouds.3 mph49%29.62 "HgN/A
4:50 PM64 °FScattered showers. Scattered clouds.14 mph52%29.62 "HgN/A
4:20 PM64 °FScattered showers. Scattered clouds.13 mph56%29.62 "HgN/A
Weather by CustomWeather, © 2014

See weather overviewHow to use our weather pages